Flag for Italy Weather past 2 weeks in Trieste, Italy

Now
61 °F

Light rain. Overcast.


Feels Like: 61 °F
Forecast: 66 / 79 °F
Wind: 5 mph from South

Location: Trieste

Current Time: Sep 3, 2014 at 5:56:31 AM

Latest Report: Sep 3, 2014 at 4:00 AM


Visibility: 6 mi

Pressure: 29.88 "Hg

Humidity: 94%

Dew point: 59 °F

Location of TriesteLocation

Historic Weather in Trieste — Graph

°F

Trieste temperature yesterday

Maximum temperature yesterday: 65 °F (at 1:00 AM)
Minimum temperature yesterday: 59 °F (at 3:00 PM)
Average temperature yesterday: 61 °F

Past Weeks' High & Low Weather Summary

 TemperatureHumidityPressure
High83 °F (Aug 30, 5:00 PM)97% (Sep 3, 1:00 AM)30.05 "Hg (Sep 3, 1:00 AM)
Low56 °F (Sep 1, 11:00 AM)1% (Aug 22, 6:00 PM)29.68 "Hg (Sep 1, 12:00 AM)
Average70 °F67%29.91 "Hg
* Reported Aug 19 4:00 AM — Sep 3 4:00 AM, Trieste, Weather by CustomWeather, © 2014

Note: Actual official high and low records may vary slightly from our data, if they occured in-between our weather recording intervals... More about our weather records

Advertising

Trieste weather history for previous 24 hours

 ConditionsComfort  
Time TempWeatherWind HumidityBarometerVisibility
4:00 AM
Sep 3
61 °FLight rain. Overcast.5 mph94%29.88 "Hg6 mi
3:00 AM60 °FLight rain. Overcast.6 mph90%29.89 "Hg6 mi
2:00 AM59 °FLight rain. Overcast.7 mph96%29.90 "Hg6 mi
1:00 AM59 °FLight rain. Overcast.6 mph97%29.90 "Hg12 mi
12:00 AM60 °FLight rain. Overcast.6 mph85%29.90 "Hg12 mi
11:00 PM
Sep 2
60 °FLight rain. Overcast.5 mph87%29.90 "Hg12 mi
10:00 PM59 °FDrizzle. Overcast.3 mph89%29.89 "Hg12 mi
9:00 PM60 °FDrizzle. Overcast.3 mph88%29.88 "Hg12 mi
8:00 PM59 °FDrizzle. Overcast.2 mph91%29.88 "Hg12 mi
7:00 PM60 °FDrizzle. Overcast.N/A83%29.87 "Hg12 mi
6:00 PM60 °FDrizzle. Overcast.N/A89%29.88 "Hg12 mi
5:00 PM59 °FDrizzle. Overcast.1 mph96%29.88 "Hg12 mi
4:00 PM59 °FLight rain. Overcast.7 mph84%29.88 "Hg6 mi
3:00 PM59 °FLight rain. Overcast.6 mph91%29.89 "Hg6 mi
2:00 PM62 °FLight rain. Overcast.5 mph71%29.88 "Hg12 mi
1:00 PM62 °FLight rain. Overcast.N/A79%29.88 "Hg6 mi
12:00 PM60 °FLight rain. Overcast.3 mph84%29.88 "Hg6 mi
11:00 AM60 °FLight rain. Overcast.5 mph82%29.88 "Hg6 mi
10:00 AM59 °FLight rain. Overcast.5 mph94%29.86 "Hg6 mi
9:00 AM61 °FLight rain. Overcast.6 mph79%29.83 "Hg12 mi
8:00 AM63 °FDrizzle. Overcast.13 mph68%29.79 "Hg12 mi
7:00 AM64 °FOvercast.5 mph64%29.80 "Hg12 mi
6:00 AM64 °FPassing clouds.5 mph56%29.79 "Hg12 mi
5:00 AM63 °FPassing clouds.5 mph66%29.79 "Hg12 mi
Weather by CustomWeather, © 2014

See weather overviewHow to use our weather pages